Weather History for Manassas, VA

Change the Weather History Date:

Wednesday, February 6, 2013

  Actual Average Record
Temperature  
Mean Temperature 36 °F -  
Max Temperature 46 °F 44 °F 66 °F (2008)
Min Temperature 24 °F 23 °F 6 °F (2007)
Degree Days  
Heating Degree Days 29    
Moisture  
Dew Point 29 °F    
Average Humidity 82    
Maximum Humidity 100    
Minimum Humidity 49    
Precipitation  
Precipitation 0.00 in - - ()
Sea Level Pressure  
Sea Level Pressure 30.15 in    
Wind  
Wind Speed 3 mph (North)    
Max Wind Speed 14 mph    
Max Gust Speed 18 mph    
Visibility 10 miles    
Events      
Averages and records for this station are not official NWS values.
T = Trace of Precipitation, MM = Missing Value Source: NWS Daily Summary

Daily Weather History Graph

Daily Weather History Graph

Search for Another Location

Airport:

Trip Planner

Search our weather history database for the weather conditions in past years. The results will help you decide how hot, cold, wet, or windy it might be!

Date:

Astronomy

Feb. 06, 2013 Rise Set
Actual Time 7:10 AM EST 5:37 PM EST
Civil Twilight 6:43 AM EST 6:05 PM EST
Nautical Twilight 6:11 AM EST 6:37 PM EST
Astronomical Twilight 5:40 AM EST 7:08 PM EST
Moon 3:51 AM EST (2/6) 1:55 PM EST (2/6)
Length of Visible Light 11h 22m
Length of Day
10h 26m
Waning Crescent, 17% of the Moon is Illuminated
Feb 6
Waning Crescent
Feb 10
New
Feb 17
First Quarter
Feb 25
Full
Mar 4
Last Quarter

Hourly Weather History & Observations

Time (EST) Temp. Windchill Dew Point Humidity Pressure Visibility Wind Dir Wind Speed Gust Speed Precip Events Conditions
12:15 AM 35.6 °F 32.8 °F 32.0 °F 87% 29.95 in 10.0 mi NNW 3.5 mph - N/A   Overcast
12:35 AM 35.6 °F 31.7 °F 32.0 °F 87% 29.95 in 10.0 mi North 4.6 mph - N/A   Overcast
12:55 AM 35.6 °F - 32.0 °F 87% 29.94 in 10.0 mi Calm Calm - N/A   Overcast
1:15 AM 35.6 °F - 30.2 °F 81% 29.95 in 10.0 mi Calm Calm - N/A   Overcast
1:35 AM 35.6 °F - 32.0 °F 87% 29.95 in 10.0 mi Calm Calm - N/A   Overcast
1:55 AM 35.6 °F - 30.2 °F 81% 29.95 in 10.0 mi Calm Calm - N/A   Overcast
2:15 AM 35.6 °F 32.8 °F 32.0 °F 87% 29.95 in 10.0 mi South 3.5 mph - N/A   Overcast
2:35 AM 33.8 °F - 30.2 °F 87% 29.95 in 10.0 mi Calm Calm - N/A   Mostly Cloudy
3:15 AM 32.0 °F - 28.4 °F 87% 29.96 in 10.0 mi Calm Calm - N/A   Overcast
3:35 AM 30.2 °F - 28.4 °F 93% 29.97 in 10.0 mi Calm Calm - N/A   Mostly Cloudy
3:55 AM 30.2 °F - 28.4 °F 93% 29.97 in 9.0 mi Calm Calm - N/A   Mostly Cloudy
4:15 AM 28.4 °F - 28.4 °F 100% 29.98 in 10.0 mi Calm Calm - N/A   Mostly Cloudy
4:35 AM 28.4 °F - 28.4 °F 100% 30.00 in 10.0 mi Calm Calm - N/A   Overcast
4:55 AM 30.2 °F - 28.4 °F 93% 30.01 in 10.0 mi Calm Calm - N/A   Overcast
5:15 AM 30.2 °F - 28.4 °F 93% 30.03 in 10.0 mi Calm Calm - N/A   Overcast
5:35 AM 30.2 °F - 30.2 °F 100% 30.04 in 9.0 mi Calm Calm - N/A   Overcast
5:55 AM 30.2 °F - 30.2 °F 100% 30.05 in 10.0 mi Calm Calm - N/A   Overcast
6:15 AM 32.0 °F - 30.2 °F 93% 30.05 in 10.0 mi Calm Calm - N/A   Overcast
6:35 AM 30.2 °F - 28.4 °F 93% 30.06 in 10.0 mi Calm Calm - N/A   Mostly Cloudy
6:55 AM 30.2 °F - 30.2 °F 100% 30.08 in 10.0 mi Calm Calm - N/A   Scattered Clouds
7:15 AM 28.4 °F - 28.4 °F 100% 30.08 in 8.0 mi Calm Calm - N/A   Clear
7:50 AM 28.4 °F - 26.6 °F 93% 30.12 in 8.0 mi Calm Calm - N/A   Clear
8:45 AM 35.6 °F - 33.8 °F 93% 30.14 in 10.0 mi Calm Calm - N/A   Clear
9:55 AM 44.6 °F 39.7 °F 30.2 °F 57% 30.17 in 10.0 mi NNW 9.2 mph - N/A   Clear
10:55 AM 44.6 °F 38.4 °F 28.4 °F 53% 30.19 in 10.0 mi NNW 12.7 mph 18.4 mph N/A   Partly Cloudy
11:45 AM 44.6 °F 40.2 °F 30.2 °F 57% 30.20 in 10.0 mi North 8.1 mph - N/A   Partly Cloudy
12:45 PM 46.4 °F 42.4 °F 28.4 °F 50% 30.19 in 10.0 mi North 8.1 mph 16.1 mph N/A   Mostly Cloudy
1:45 PM 46.4 °F 40.7 °F 37.4 °F 71% 30.19 in 10.0 mi North 12.7 mph - N/A   Overcast
4:45 PM 44.6 °F 38.1 °F 26.6 °F 49% 30.22 in 10.0 mi North 13.8 mph - N/A   Clear
5:55 PM 39.2 °F 32.5 °F 28.4 °F 65% 30.26 in 10.0 mi North 10.4 mph - N/A   Clear
6:15 PM 39.2 °F 32.5 °F 28.4 °F 65% 30.26 in 10.0 mi NNW 10.4 mph 18.4 mph N/A   Clear
6:35 PM 39.2 °F 32.5 °F 26.6 °F 61% 30.28 in 10.0 mi NNW 10.4 mph - N/A   Clear
6:55 PM 37.4 °F 30.8 °F 28.4 °F 70% 30.28 in 10.0 mi NNW 9.2 mph - N/A   Clear
7:15 PM 37.4 °F 33.8 °F 26.6 °F 65% 30.30 in 10.0 mi North 4.6 mph - N/A   Clear
7:35 PM 35.6 °F 29.2 °F 26.6 °F 70% 30.30 in 10.0 mi North 8.1 mph - N/A   Clear
7:55 PM 35.6 °F - 26.6 °F 70% 30.30 in 10.0 mi Calm Calm - N/A   Clear
8:15 PM 35.6 °F - 26.6 °F 70% 30.31 in 10.0 mi Calm Calm - N/A   Clear
8:35 PM 35.6 °F 30.7 °F 26.6 °F 70% 30.31 in 10.0 mi NNE 5.8 mph - N/A   Clear
8:55 PM 35.6 °F 32.8 °F 26.6 °F 70% 30.32 in 10.0 mi NNE 3.5 mph - N/A   Clear
9:15 PM 33.8 °F - 26.6 °F 75% 30.34 in 10.0 mi Calm Calm - N/A   Clear
9:35 PM 33.8 °F 28.6 °F 26.6 °F 75% 30.33 in 10.0 mi North 5.8 mph - N/A   Clear
9:55 PM 33.8 °F - 26.6 °F 75% 30.34 in 10.0 mi Calm Calm - N/A   Clear
10:15 PM 28.4 °F - 26.6 °F 93% 30.35 in 10.0 mi Calm Calm - N/A   Clear
10:35 PM 26.6 °F - 26.6 °F 100% 30.35 in 10.0 mi Calm Calm - N/A   Clear
10:55 PM 26.6 °F - 26.6 °F 100% 30.35 in 10.0 mi Calm Calm - N/A   Clear
11:15 PM 26.6 °F - 24.8 °F 93% 30.35 in 10.0 mi Calm Calm - N/A   Clear
11:35 PM 26.6 °F - 24.8 °F 93% 30.35 in 10.0 mi Calm Calm - N/A   Clear
11:55 PM 24.8 °F - 24.8 °F 100% 30.34 in 10.0 mi Calm Calm - N/A   Clear